DW1770 Weather Reports


Display with metric or nautical units.
time (UTC)temp
F
wind
direction
speed
MPH
gust
MPH
rain 1hr
in
rain 24hr
in
rain mn
in
humidity
%
barometer
mb
20210918144628 66 324 2.0 5.0 0.00 0.00 0.00 88 1019.1
20210918144129 66 309 2.0 5.0 0.00 0.00 0.00 89 1019.2
20210918143629 66 350 2.0 4.0 0.00 0.00 0.00 89 1019.3
20210918143129 66 301 2.0 5.0 0.00 0.00 0.00 89 1019.4
20210918142628 65 18 2.0 5.0 0.00 0.00 0.00 90 1019.5
20210918142129 65 355 2.0 6.0 0.00 0.00 0.00 90 1019.6
20210918141628 65 292 1.0 6.0 0.00 0.00 0.00 90 1019.7
20210918141129 65 329 3.0 6.0 0.00 0.00 0.00 90 1019.7
20210918140628 65 317 1.0 6.0 0.00 0.00 0.00 90 1019.7
20210918140128 65 332 3.0 6.0 0.00 0.00 0.00 91 1019.6
20210918135630 65 335 1.0 3.0 0.00 0.00 0.00 91 1019.4
20210918135129 65 359 1.0 3.0 0.00 0.00 0.00 92 1019.3
20210918134631 65 355 2.0 3.0 0.00 0.00 0.00 92 1019.2
20210918134129 65 328 1.0 3.0 0.00 0.00 0.00 92 1019.1
20210918133629 65 297 0.0 3.0 0.00 0.00 0.00 93 1019.0
20210918133129 64 118 0.0 1.0 0.00 0.00 0.00 93 1019.0
20210918132629 64 171 0.0 2.0 0.00 0.00 0.00 92 1018.9
20210918132128 64 152 0.0 2.0 0.00 0.00 0.00 93 1018.7
20210918131629 64 152 0.0 2.0 0.00 0.00 0.00 93 1018.9
20210918131129 64 157 1.0 2.0 0.00 0.00 0.00 93 1019.0
20210918130629 64 170 1.0 2.0 0.00 0.00 0.00 93 1019.3
20210918130129 64 219 0.0 2.0 0.00 0.00 0.00 93 1019.4
20210918125629 64 219 1.0 2.0 0.00 0.00 0.00 93 1019.3
20210918125130 64 219 0.0 2.0 0.00 0.00 0.00 93 1019.2
20210918124629 63 261 1.0 2.0 0.00 0.00 0.00 93 1019.4
20210918124130 63 318 0.0 2.0 0.00 0.00 0.00 93 1019.4
20210918123628 63 318 0.0 2.0 0.00 0.00 0.00 93 1019.5
20210918123129 63 332 1.0 2.0 0.00 0.00 0.00 93 1019.5
20210918122630 63 15 0.0 2.0 0.00 0.00 0.00 93 1019.5
20210918122129 63 49 0.0 2.0 0.00 0.00 0.00 93 1019.5
20210918121629 63 355 0.0 2.0 0.00 0.00 0.00 93 1019.7
20210918121131 63 350 1.0 2.0 0.00 0.00 0.00 93 1019.6
20210918120630 63 345 1.0 2.0 0.00 0.00 0.00 93 1019.6
20210918120130 63 11 0.0 1.0 0.00 0.00 0.00 93 1019.5
20210918115630 63 339 0.0 1.0 0.00 0.00 0.00 93 1019.6
20210918115130 63 337 0.0 2.0 0.00 0.00 0.00 93 1019.6
20210918114630 63 337 0.0 4.0 0.00 0.00 0.00 93 1019.9
20210918114130 63 330 1.0 4.0 0.00 0.00 0.00 93 1019.9
20210918113628 63 321 1.0 4.0 0.00 0.00 0.00 93 1019.8
20210918113130 63 342 2.0 4.0 0.00 0.00 0.00 93 1019.8
20210918112628 63 306 1.0 4.0 0.00 0.00 0.00 93 1019.9
20210918112131 63 332 2.0 4.0 0.00 0.00 0.00 93 1019.9
20210918111630 63 342 1.0 4.0 0.00 0.00 0.00 93 1020.0
20210918111129 63 313 2.0 4.0 0.00 0.00 0.00 93 1020.1
20210918110629 63 350 0.0 2.0 0.00 0.00 0.00 93 1020.1
20210918110128 63 340 0.0 3.0 0.00 0.00 0.00 93 1020.0
20210918105629 62 345 1.0 3.0 0.00 0.00 0.00 93 1020.0
20210918105129 62 319 1.0 3.0 0.00 0.00 0.00 93 1019.9
20210918104630 62 338 1.0 2.0 0.00 0.00 0.00 93 1019.9
20210918104129 62 278 0.0 2.0 0.00 0.00 0.00 93 1019.7
20210918103631 62 265 0.0 1.0 0.00 0.00 0.00 93 1019.8
20210918103129 62 265 0.0 2.0 0.00 0.00 0.00 93 1019.5
20210918102629 62 265 1.0 2.0 0.00 0.00 0.00 93 1019.6
20210918102129 62 319 0.0 3.0 0.00 0.00 0.00 93 1019.6
20210918101630 62 323 1.0 3.0 0.00 0.00 0.00 93 1019.7
20210918101129 62 333 1.0 3.0 0.00 0.00 0.00 93 1019.7
20210918100627 62 330 1.0 5.0 0.00 0.00 0.00 93 1019.7
20210918100124 62 341 2.0 5.0 0.00 0.00 0.00 93 1019.7
20210918095620 62 340 1.0 3.0 0.00 0.00 0.00 93 1019.7
20210918095116 62 355 1.0 4.0 0.00 0.00 0.00 93 1019.6
20210918094612 63 345 2.0 4.0 0.00 0.00 0.00 93 1019.5
20210918094106 63 33 0.0 2.0 0.00 0.00 0.00 92 1019.5
20210918093607 63 68 0.0 2.0 0.00 0.00 0.00 92 1019.5
20210918093104 63 355 0.0 2.0 0.00 0.00 0.00 93 1019.6
20210918092601 63 339 1.0 2.0 0.00 0.00 0.00 93 1019.5
20210918092102 63 21 0.0 2.0 0.00 0.00 0.00 93 1019.4
20210918091603 63 359 1.0 2.0 0.00 0.00 0.00 93 1019.4
20210918091101 63 338 1.0 2.0 0.00 0.00 0.00 93 1019.5
20210918090602 63 332 1.0 2.0 0.00 0.00 0.00 92 1019.6
20210918090100 63 3 1.0 2.0 0.00 0.00 0.00 92 1019.7
20210918085602 63 324 1.0 3.0 0.00 0.00 0.00 92 1019.6
20210918085102 63 340 1.0 3.0 0.00 0.00 0.00 92 1019.6
20210918084601 63 42 0.0 2.0 0.00 0.00 0.00 93 1019.6
20210918084103 63 317 0.0 2.0 0.00 0.00 0.00 92 1019.5
20210918083601 63 317 0.0 1.0 0.00 0.00 0.00 92 1019.5
20210918083333 63 317 0.0 2.0 0.00 0.00 0.00 92 1019.5
20210918082603 63 317 0.0 2.0 0.00 0.00 0.00 92 1019.5
20210918082109 63 313 1.0 2.0 0.00 0.00 0.00 92 1019.7
20210918081833 63 355 0.0 1.0 0.00 0.00 0.00 93 1019.7
20210918081102 63 350 0.0 1.0 0.00 0.00 0.00 93 1019.8
20210918080604 63 350 0.0 2.0 0.00 0.00 0.00 93 1019.8
20210918080100 63 350 1.0 2.0 0.00 0.00 0.00 93 1019.7
20210918075602 63 338 1.0 2.0 0.00 0.00 0.00 93 1019.8
20210918075104 63 325 0.0 1.0 0.00 0.00 0.00 93 1019.9
20210918074601 63 325 0.0 2.0 0.00 0.00 0.00 92 1019.9
20210918074102 63 322 1.0 2.0 0.00 0.00 0.00 92 1019.9
20210918073602 63 20 0.0 1.0 0.00 0.00 0.00 92 1019.9
20210918073101 63 20 0.0 1.0 0.00 0.00 0.00 92 1019.9
20210918072550 63 334 0.0 1.0 0.00 0.00 0.00 92 1019.9
20210918072046 63 326 0.0 1.0 0.00 0.00 0.00 92 1020.0
20210918071536 63 326 0.0 1.0 0.00 0.00 0.00 92 1020.2
20210918071033 63 326 0.0 1.0 0.00 0.00 0.00 92 1020.3
20210918070530 63 326 0.0 1.0 0.00 0.00 0.00 92 1020.3
20210918070030 63 326 0.0 1.0 0.00 0.00 0.00 92 1020.4
20210918065529 63 326 0.0 1.0 0.00 0.00 0.00 92 1020.4
20210918065029 63 323 0.0 1.0 0.00 0.00 0.00 92 1020.4
20210918064633 63 323 0.0 2.0 0.00 0.00 0.00 92 1020.4
20210918064030 63 323 0.0 2.0 0.00 0.00 0.00 92 1020.3
20210918063529 63 355 1.0 1.0 0.00 0.00 0.00 92 1020.2
20210918063023 63 355 0.0 2.0 0.00 0.00 0.00 92 1020.3
20210918062520 63 355 0.0 2.0 0.00 0.00 0.00 92 1020.4
20210918062012 63 320 1.0 2.0 0.00 0.00 0.00 92 1020.4
20210918061508 63 322 0.0 1.0 0.00 0.00 0.00 92 1020.5
20210918061008 63 99 0.0 0.0 0.00 0.00 0.00 92 1020.6
20210918060505 63 99 0.0 0.0 0.00 0.00 0.00 92 1020.5
20210918060019 63 99 0.0 0.0 0.00 0.00 0.00 92 1020.6
20210918055502 63 99 0.0 0.0 0.00 0.00 0.00 92 1020.7
20210918055008 63 99 0.0 0.0 0.00 0.00 0.00 92 1020.7
20210918054500 63 99 0.0 0.0 0.00 0.00 0.00 92 1020.7
20210918054003 63 99 0.0 0.0 0.00 0.00 0.00 92 1020.6
20210918053732 63 99 0.0 0.0 0.00 0.00 0.00 92 1020.7
20210918053004 63 99 0.0 0.0 0.00 0.00 0.00 91 1020.9
20210918052501 63 99 0.0 0.0 0.00 0.00 0.00 91 1021.0
20210918052008 63 99 0.0 0.0 0.00 0.00 0.00 91 1021.1
20210918051502 63 99 0.0 0.0 0.00 0.00 0.00 91 1021.2
20210918051007 63 99 0.0 0.0 0.00 0.00 0.00 91 1021.3
20210918050500 63 99 0.0 0.0 0.00 0.00 0.00 91 1021.2
20210918050007 63 99 0.0 0.0 0.00 0.00 0.00 91 1021.3
20210918045501 63 99 0.0 0.0 0.00 0.00 0.00 91 1021.2
20210918045004 63 99 0.0 0.0 0.00 0.00 0.00 91 1021.3
20210918044458 63 99 0.0 0.0 0.00 0.00 0.00 91 1021.3
20210918043955 63 99 0.0 0.0 0.00 0.00 0.00 91 1021.4
20210918043453 64 99 0.0 0.0 0.00 0.00 0.00 90 1021.3
20210918042950 64 99 0.0 0.0 0.00 0.00 0.00 90 1021.5
20210918042447 64 99 0.0 0.0 0.00 0.00 0.00 90 1021.4
20210918041943 64 99 0.0 0.0 0.00 0.00 0.00 90 1021.5
20210918041439 64 99 0.0 0.0 0.00 0.00 0.00 90 1021.6
20210918040932 64 99 0.0 0.0 0.00 0.00 0.00 90 1021.6
20210918040431 64 99 0.0 0.0 0.00 0.00 0.00 89 1021.7
20210918035930 64 99 0.0 0.0 0.00 0.00 0.00 89 1021.8
20210918035429 64 99 0.0 0.0 0.00 0.00 0.00 89 1021.8
20210918034929 64 99 0.0 0.0 0.00 0.00 0.00 89 1021.8
20210918034429 64 99 0.0 0.0 0.00 0.00 0.00 89 1022.0
20210918033928 64 99 0.0 0.0 0.00 0.00 0.00 89 1022.0
20210918033429 64 99 0.0 0.0 0.00 0.00 0.00 89 1022.2
20210918032932 64 99 0.0 0.0 0.00 0.00 0.00 88 1022.1
20210918032429 64 99 0.0 0.0 0.00 0.00 0.00 88 1022.1
20210918031930 64 99 0.0 0.0 0.00 0.00 0.00 88 1022.1
20210918031430 64 99 0.0 0.0 0.00 0.00 0.00 88 1022.1
20210918030932 64 99 0.0 0.0 0.00 0.00 0.00 88 1022.1
20210918030430 64 99 0.0 0.0 0.00 0.00 0.00 88 1022.2
20210918025930 64 99 0.0 0.0 0.00 0.00 0.00 88 1022.4
20210918025429 64 99 0.0 0.0 0.00 0.00 0.00 88 1022.6
20210918024931 64 99 0.0 0.0 0.00 0.00 0.00 88 1022.5
20210918024428 64 99 0.0 0.0 0.00 0.00 0.00 88 1022.6
20210918023929 64 99 0.0 0.0 0.00 0.00 0.00 88 1022.8
20210918023431 64 99 0.0 0.0 0.00 0.00 0.00 87 1022.9
20210918022930 64 99 0.0 0.0 0.00 0.00 0.00 87 1023.0
20210918022430 64 99 0.0 0.0 0.00 0.00 0.00 87 1023.0
20210918021931 64 99 0.0 0.0 0.00 0.00 0.00 87 1023.0
20210918021429 64 99 0.0 0.0 0.00 0.00 0.00 87 1023.1
20210918020930 64 99 0.0 0.0 0.00 0.00 0.00 87 1023.1
20210918020426 64 99 0.0 0.0 0.00 0.00 0.00 87 1023.1
20210918015924 64 99 0.0 0.0 0.00 0.00 0.00 87 1023.1
20210918015421 64 99 0.0 0.0 0.00 0.00 0.00 87 1023.2
20210918014919 64 99 0.0 0.0 0.00 0.00 0.00 87 1023.2
20210918014414 64 99 0.0 0.0 0.00 0.00 0.00 87 1023.2
20210918013913 64 99 0.0 0.0 0.00 0.00 0.00 87 1023.2
20210918013410 64 99 0.0 0.0 0.00 0.00 0.00 87 1023.3
20210918012907 65 99 0.0 0.0 0.00 0.00 0.00 87 1023.4
20210918012407 65 99 0.0 0.0 0.00 0.00 0.00 87 1023.4
20210918011904 65 99 0.0 0.0 0.00 0.00 0.00 87 1023.4
20210918011402 65 99 0.0 0.0 0.00 0.00 0.00 87 1023.5
20210918010907 65 99 0.0 0.0 0.00 0.00 0.00 86 1023.4
20210918010403 65 99 0.0 0.0 0.00 0.00 0.00 86 1023.5
20210918005904 65 99 0.0 0.0 0.00 0.00 0.00 86 1023.5
20210918005402 65 99 0.0 0.0 0.00 0.00 0.00 86 1023.5
20210918004902 65 99 0.0 0.0 0.00 0.00 0.00 87 1023.6
20210918004401 65 99 0.0 0.0 0.00 0.00 0.00 86 1023.6
20210918003905 65 99 0.0 0.0 0.00 0.00 0.00 86 1023.8
20210918003400 65 99 0.0 0.0 0.00 0.00 0.00 86 1023.6
20210918002902 65 99 0.0 0.0 0.00 0.00 0.00 86 1023.8
20210918002401 65 99 0.0 0.0 0.00 0.00 0.00 86 1023.8
20210918001901 65 99 0.0 0.0 0.00 0.00 0.00 86 1023.9
20210918001400 65 99 0.0 0.0 0.00 0.00 0.00 86 1023.9
20210918000903 65 99 0.0 0.0 0.00 0.00 0.00 86 1023.9
20210918000633 65 99 0.0 0.0 0.00 0.00 0.00 86 1023.9
20210917235901 65 99 0.0 0.0 0.00 0.00 0.00 86 1024.0
20210917235358 65 99 0.0 1.0 0.00 0.00 0.00 86 1023.9
20210917234850 65 99 0.0 1.0 0.00 0.00 0.00 86 1023.8
20210917234345 65 99 0.0 2.0 0.00 0.00 0.00 86 1023.8
20210917233842 65 99 0.0 2.0 0.00 0.00 0.00 86 1023.8
20210917233339 65 101 0.0 1.0 0.00 0.00 0.00 86 1023.8
20210917232839 65 101 0.0 0.0 0.00 0.00 0.00 86 1023.8
20210917232338 65 101 0.0 0.0 0.00 0.00 0.00 86 1023.8
20210917231834 65 101 0.0 0.0 0.00 0.00 0.00 86 1023.8
20210917231331 65 101 0.0 1.0 0.00 0.00 0.00 85 1024.0
20210917230831 65 101 0.0 1.0 0.00 0.00 0.00 85 1024.0
20210917230329 65 101 0.0 0.0 0.00 0.00 0.00 85 1024.0
20210917225831 65 101 0.0 0.0 0.00 0.00 0.00 85 1024.1
20210917225329 65 101 0.0 1.0 0.00 0.00 0.00 85 1024.0
20210917224830 65 101 0.0 1.0 0.00 0.00 0.00 85 1024.1
20210917224330 65 101 0.0 1.0 0.00 0.00 0.00 85 1024.0
20210917223829 65 101 0.0 2.0 0.00 0.00 0.00 85 1024.1
20210917223330 66 101 0.0 2.0 0.00 0.00 0.00 84 1024.1
20210917222829 66 84 1.0 2.0 0.00 0.00 0.00 84 1024.2
20210917222329 66 111 1.0 2.0 0.00 0.00 0.00 83 1024.2
20210917221829 66 68 1.0 2.0 0.00 0.00 0.00 83 1024.3
20210917221329 67 72 1.0 2.0 0.00 0.00 0.00 82 1024.4
20210917220829 67 72 1.0 3.0 0.00 0.00 0.00 82 1024.4
20210917220329 67 93 1.0 3.0 0.00 0.00 0.00 82 1024.3
20210917215828 67 88 1.0 2.0 0.00 0.00 0.00 83 1024.3
20210917215328 67 74 0.0 2.0 0.00 0.00 0.00 83 1024.3
20210917214827 67 74 0.0 2.0 0.00 0.00 0.00 83 1024.4
20210917214323 67 74 1.0 2.0 0.00 0.00 0.00 83 1024.4
20210917213819 67 76 0.0 2.0 0.00 0.00 0.00 84 1024.5
20210917213317 67 76 0.0 1.0 0.00 0.00 0.00 84 1024.6
20210917212812 67 76 0.0 1.0 0.00 0.00 0.00 84 1024.5
20210917212305 67 76 0.0 1.0 0.00 0.00 0.00 84 1024.7
20210917211802 67 76 0.0 1.0 0.00 0.00 0.00 84 1024.7
20210917211303 67 76 0.0 1.0 0.00 0.00 0.00 83 1024.7
20210917210801 68 83 0.0 2.0 0.00 0.00 0.00 83 1024.7
20210917210302 68 55 0.0 2.0 0.00 0.00 0.00 83 1024.8
20210917205801 68 53 0.0 2.0 0.00 0.00 0.00 83 1024.8
20210917205300 68 53 0.0 2.0 0.00 0.00 0.00 83 1024.9
20210917204801 68 53 0.0 1.0 0.00 0.00 0.00 83 1024.9
20210917204302 68 57 0.0 2.0 0.00 0.00 0.00 83 1025.0
20210917203801 68 54 1.0 2.0 0.00 0.00 0.00 84 1025.0
20210917203304 68 54 1.0 2.0 0.00 0.00 0.00 83 1024.9
20210917202801 68 54 1.0 2.0 0.00 0.00 0.00 83 1025.1
20210917202305 68 47 1.0 2.0 0.00 0.00 0.00 83 1025.1
20210917202033 68 45 0.0 2.0 0.00 0.00 0.00 83 1025.2
20210917201302 68 83 0.0 1.0 0.00 0.00 0.00 84 1025.2
20210917200800 68 83 0.0 1.0 0.00 0.00 0.00 83 1025.4
20210917200302 68 83 0.0 2.0 0.00 0.00 0.00 83 1025.4
20210917195803 68 83 0.0 2.0 0.00 0.00 0.00 83 1025.5
20210917195305 68 107 0.0 1.0 0.00 0.00 0.00 83 1025.5
20210917194803 68 107 0.0 1.0 0.00 0.00 0.00 83 1025.6
20210917194303 68 124 0.0 1.0 0.00 0.00 0.00 83 1025.6
20210917193802 68 124 0.0 1.0 0.00 0.00 0.00 83 1025.7
20210917193301 68 81 0.0 2.0 0.00 0.00 0.00 83 1025.8
20210917192800 68 80 1.0 2.0 0.00 0.00 0.00 83 1025.8
20210917192305 68 74 1.0 2.0 0.00 0.00 0.00 83 1025.7
20210917191802 68 102 1.0 1.0 0.00 0.00 0.00 83 1025.6
20210917191305 68 103 0.0 2.0 0.00 0.00 0.00 84 1025.6
20210917190801 68 103 0.0 2.0 0.00 0.00 0.00 84 1025.6
20210917190303 68 106 0.0 2.0 0.00 0.00 0.00 84 1025.8
20210917185800 68 97 0.0 2.0 0.00 0.00 0.00 83 1025.7
20210917185305 68 76 1.0 2.0 0.00 0.00 0.00 83 1025.8
20210917184801 68 83 0.0 2.0 0.00 0.00 0.00 84 1025.9
20210917184304 68 83 0.0 2.0 0.00 0.00 0.00 83 1025.8
20210917183804 68 83 0.0 2.0 0.00 0.00 0.00 83 1025.9
20210917183302 68 49 0.0 2.0 0.00 0.00 0.00 83 1026.0
20210917182802 68 74 0.0 2.0 0.00 0.00 0.00 83 1025.9
20210917182305 68 74 0.0 1.0 0.00 0.00 0.00 83 1025.9
20210917181802 68 82 0.0 1.0 0.00 0.00 0.00 83 1026.0
20210917181303 68 82 0.0 1.0 0.00 0.00 0.00 82 1026.0
20210917180801 68 82 0.0 2.0 0.00 0.00 0.00 83 1026.2
20210917180303 68 82 0.0 2.0 0.00 0.00 0.00 83 1026.3
20210917175802 68 85 0.0 2.0 0.00 0.00 0.00 83 1026.2
20210917175305 68 85 0.0 2.0 0.00 0.00 0.00 83 1026.3
20210917174801 68 85 1.0 2.0 0.00 0.00 0.00 82 1026.3
20210917174302 68 51 0.0 1.0 0.00 0.00 0.00 83 1026.3
20210917173801 68 41 0.0 2.0 0.00 0.00 0.00 82 1026.3
20210917173300 68 67 0.0 2.0 0.00 0.00 0.00 82 1026.5
20210917172801 68 72 0.0 1.0 0.00 0.00 0.00 82 1026.4
20210917172305 68 72 0.0 2.0 0.00 0.00 0.00 82 1026.5
20210917171801 68 54 0.0 2.0 0.00 0.00 0.00 82 1026.6
20210917171301 68 51 0.0 2.0 0.00 0.00 0.00 82 1026.6
20210917170800 68 61 0.0 2.0 0.00 0.00 0.00 82 1026.6
20210917170300 68 51 0.0 2.0 0.00 0.00 0.00 82 1026.6
20210917165802 68 158 0.0 1.0 0.00 0.00 0.00 82 1026.5
20210917165305 68 199 0.0 1.0 0.00 0.00 0.00 82 1026.8
20210917164803 68 86 0.0 1.0 0.00 0.00 0.00 82 1026.7
20210917164301 68 86 0.0 1.0 0.00 0.00 0.00 82 1026.8
20210917163803 68 86 0.0 2.0 0.00 0.00 0.00 82 1026.7
20210917163300 68 84 0.0 2.0 0.00 0.00 0.00 81 1026.9
20210917162804 68 86 0.0 2.0 0.00 0.00 0.00 83 1026.9
20210917162304 67 86 1.0 2.0 0.00 0.00 0.00 82 1027.0
20210917161803 67 34 0.0 2.0 0.00 0.00 0.00 83 1027.0
20210917161300 67 35 1.0 2.0 0.00 0.00 0.00 83 1027.1
20210917160807 67 41 0.0 1.0 0.00 0.00 0.00 84 1027.3
20210917160301 66 102 0.0 1.0 0.00 0.00 0.00 83 1027.2
20210917155803 66 102 0.0 2.0 0.00 0.00 0.00 84 1027.2
20210917155302 66 70 0.0 2.0 0.00 0.00 0.00 84 1027.3
20210917154802 66 125 0.0 2.0 0.00 0.00 0.00 84 1027.4
20210917154303 66 93 1.0 2.0 0.00 0.00 0.00 84 1027.4
20210917153802 65 28 0.0 2.0 0.00 0.00 0.00 84 1027.4
20210917153301 65 16 0.0 2.0 0.00 0.00 0.00 84 1027.6
20210917152801 65 18 1.0 2.0 0.00 0.00 0.00 85 1027.6
20210917152305 65 59 0.0 1.0 0.00 0.00 0.00 85 1027.8
20210917151801 65 59 0.0 2.0 0.00 0.00 0.00 85 1027.9
20210917151301 65 59 1.0 2.0 0.00 0.00 0.00 86 1028.0
20210917150801 64 52 0.0 2.0 0.00 0.00 0.00 85 1028.0
20210917150300 64 48 0.0 2.0 0.00 0.00 0.00 85 1027.9
20210917145805 64 53 1.0 3.0 0.00 0.00 0.00 85 1028.0
20210917145305 64 345 1.0 3.0 0.00 0.00 0.00 85 1028.0